sat.trackr.live / text

‹ back to catalog

STARLINK-6313

NORAD 56519 · 2023-065S

PAYLOAD ACTIVE UNKNOWN

§ Identity

Operator
Country
US
Launch date
2023-05-14
Launch site
AFETR
Launch vehicle
Mass (kg)
RCS (m²)

Purposes: comms

External: N2YO · Heavens-Above · Gunter

§ Orbital elements

Epoch: 2026-05-25T00:50:45.951648Z

Period
94.27 min
Inclination
43.0033°
Eccentricity
0.0001234
Mean motion
15.27575315 rev/d
Perigee alt
482.2 km
Apogee alt
483.9 km
Semi-major
6,861.2 km
B*
1.5102e-5
RAAN
141.4944°
Arg perigee
313.2343°
Mean anomaly
46.8405°
Rev number
16,827

§ Raw data

STARLINK-63131 56519U 23065S   26145.03525407  .00000153  00000+0  15102-4 0  99972 56519  43.0033 141.4944 0001234 313.2343  46.8405 15.27575315168279

JSON: /api/v1/satellites/56519 · /tle

For live sub-satellite position, see the globe view (requires WebGL).

§ Visibility from observer

Set your observer location to see the next 7 days of passes ≥ 10°. The values pass through the URL so the page stays shareable.

No JS? Fill the form by hand. The geolocation button needs JavaScript.